Terminal Aerodrome Forecast
Issued by NWS

Home | Current Version | Previous Version | Graphics & Text | Print | Product List | Glossary On
Versions: 1 2 3 4 5 6 7 8 9 10 11 12 13 14 15 16 17
176
FTUS43 KFGF 160738 AAA
TAFBJI
TAF AMD
KBJI 160738Z 1608/1706 19003KT P6SM SKC
      TEMPO 1608/1611 2SM BR=

USA.gov is the U.S. government's official web portal to all federal, state and local government web resources and services.